Home   Weather   Red Wing   Past weeks
Flag for USA

Past Weather in Red Wing, Minnesota, USA — Yesterday and Last 2 Weeks

Now
25 °F

Overcast.


Feels Like: 25 °F
Forecast: 37 / 19 °F
Wind: No wind

Location: Red Wing Municipal Airport

Current Time: Dec 5, 2019 at 8:54:04 am

Latest Report: Dec 5, 2019 at 8:17 am


Visibility: 7 mi

Pressure: 29.91 "Hg

Humidity: 100%

Dew Point: 25 °F

Location of Red WingLocation

Past Weather in Red Wing — Graph

°F

Red Wing Temperature Yesterday

Maximum temperature yesterday: 37 °F (at 11:56 am)
Minimum temperature yesterday: 21 °F (at 10:35 pm)
Average temperature yesterday: 30 °F

High & Low Weather Summary for the Past Weeks

 TemperatureHumidityPressure
High46 °F (Nov 25, 12:16 pm)100% (Nov 20, 1:56 pm)30.56 "Hg (Nov 20, 1:56 pm)
Low7 °F (Dec 2, 7:36 am)53% (Nov 23, 12:56 pm)29.42 "Hg (Nov 25, 3:35 am)
Average31 °F81%29.87 "Hg
* Reported Nov 20 7:15 am — Dec 5 7:35 am, Red Wing. Weather by CustomWeather, © 2019

Note: Actual official high and low records may vary slightly from our data, if they occured in-between our weather recording intervals... More about our weather records

Red Wing Weather History for the Previous 24 Hours

Scroll right to see more
 ConditionsComfort  
Time TempWeatherWind HumidityBarometerVisibility
7:35 am
Thu, Dec 5
25 °FOvercast.No wind93%29.89 "Hg7 mi
7:16 am23 °FOvercast.3 mph93%29.89 "Hg7 mi
6:56 am21 °FPartly cloudy.3 mph93%29.90 "Hg7 mi
6:35 am21 °FIce fog.No wind93%29.91 "Hg5 mi
6:16 am21 °FIce fog.No wind93%29.90 "Hg5 mi
5:56 am21 °FIce fog.No wind100%29.90 "Hg5 mi
5:35 am21 °FPassing clouds.No wind93%29.89 "Hg7 mi
5:15 am21 °FPassing clouds.No wind93%29.90 "Hg7 mi
4:55 am19 °FMostly cloudy.No wind100%29.90 "Hg7 mi
4:35 am18 °FPassing clouds.No wind93%29.90 "Hg7 mi
3:55 am18 °FIce fog.3 mph93%29.91 "Hg5 mi
3:15 am18 °FClear.N/A93%29.93 "Hg7 mi
2:35 am18 °FIce fog.No wind100%29.93 "Hg5 mi
2:16 am18 °FClear.No wind93%29.92 "Hg7 mi
1:55 am19 °FClear.No wind93%29.92 "Hg7 mi
1:35 am19 °FClear.3 mph100%29.91 "Hg7 mi
1:16 am19 °FClear.No wind93%29.89 "Hg7 mi
12:55 am19 °FClear.No wind93%29.88 "Hg7 mi
12:36 am21 °FClear.3 mph93%29.88 "Hg7 mi
12:16 am21 °FClear.No wind93%29.88 "Hg10 mi
11:56 pm
Wed, Dec 4
21 °FClear.No wind93%29.87 "Hg7 mi
11:36 pm21 °FClear.No wind100%29.88 "Hg7 mi
11:15 pm21 °FIce fog.No wind93%29.88 "Hg5 mi
10:35 pm21 °FClear.No wind100%29.88 "Hg10 mi
10:15 pm23 °FClear.No wind93%29.89 "Hg7 mi
9:56 pm25 °FClear.No wind100%29.88 "Hg10 mi
9:35 pm25 °FClear.No wind93%29.88 "Hg10 mi
9:15 pm25 °FClear.No wind93%29.88 "Hg10 mi
8:56 pm25 °FClear.No wind93%29.88 "Hg10 mi
8:36 pm27 °FClear.No wind93%29.88 "Hg10 mi
8:16 pm27 °FClear.No wind93%29.88 "Hg10 mi
7:56 pm27 °FClear.No wind93%29.88 "Hg10 mi
7:35 pm27 °FClear.No wind93%29.88 "Hg10 mi
7:16 pm27 °FClear.No wind93%29.88 "Hg10 mi
6:36 pm30 °FClear.No wind86%29.87 "Hg10 mi
6:15 pm30 °FClear.3 mph86%29.86 "Hg10 mi
5:55 pm32 °FClear.No wind80%29.86 "Hg10 mi
5:35 pm32 °FClear.3 mph80%29.86 "Hg10 mi
5:16 pm34 °FClear.5 mph75%29.85 "Hg10 mi
4:55 pm34 °FClear.7 mph75%29.84 "Hg10 mi
4:36 pm34 °FClear.5 mph75%29.83 "Hg10 mi
4:15 pm36 °FSunny.6 mph70%29.83 "Hg10 mi
3:55 pm36 °FSunny.7 mph70%29.82 "Hg10 mi
3:35 pm37 °FSunny.8 mph65%29.81 "Hg10 mi
3:15 pm37 °FSunny.7 mph65%29.81 "Hg10 mi
2:55 pm37 °FSunny.8 mph65%29.80 "Hg10 mi
2:35 pm37 °FSunny.10 mph65%29.79 "Hg10 mi
2:16 pm37 °FScattered clouds.8 mph65%29.79 "Hg10 mi
1:55 pm37 °FMore clouds than sun.9 mph65%29.78 "Hg10 mi
1:36 pm37 °FBroken clouds.9 mph65%29.78 "Hg10 mi
12:55 pm37 °FSunny.12 mph65%29.77 "Hg10 mi
12:36 pm37 °FSunny.10 mph65%29.77 "Hg10 mi
12:15 pm37 °FSunny.10 mph65%29.76 "Hg10 mi
11:56 am37 °FSunny.10 mph65%29.76 "Hg10 mi
11:36 am36 °FSunny.8 mph70%29.76 "Hg10 mi
11:16 am36 °FSunny.9 mph70%29.75 "Hg10 mi
10:55 am36 °FSunny.8 mph70%29.76 "Hg10 mi
10:35 am36 °FSunny.10 mph70%29.76 "Hg10 mi
10:15 am36 °FSunny.8 mph70%29.76 "Hg10 mi
9:55 am34 °FSunny.7 mph75%29.75 "Hg10 mi
9:35 am32 °FSunny.7 mph80%29.76 "Hg10 mi
9:15 am32 °FSunny.10 mph80%29.75 "Hg10 mi
8:56 am30 °FSunny.6 mph80%29.74 "Hg10 mi
8:35 am28 °FSunny.6 mph86%29.73 "Hg10 mi
8:16 am28 °FSunny.7 mph86%29.73 "Hg10 mi
Weather by CustomWeather, © 2019

See weather overview

Advertising